Regional Weather Roundup
Issued by NWS

Home | Current Version | Previous Version | Text Only | Print | Product List | Glossary On
Versions: 1 2 3 4 5 6 7 8 9 10 11 12 13 14 15 16 17 18 19 20 21 22 23 24 25 26 27 28 29 30 31 32 33 34 35 36 37 38 39 40 41 42 43 44 45 46 47 48 49 50
000
ASUS45 KABQ 230410
RWRNM
NEW MEXICO REGIONAL WEATHER ROUNDUP
NATIONAL WEATHER SERVICE ALBUQUERQUE NM
1000 PM MDT FRI SEP 22 2017

NOTE: "FAIR" MEANS FEW OR NO CLOUDS BELOW 12,000 FEET AGL WITH NO
       SIGNIFICANT WEATHER OR OBSTRUCTIONS TO VISION.

      THIS PRODUCT IS RELEASED AS TWO VERSIONS.  ONE VERSION NEAR
      THE TOP OF THE HOUR CONTAINING PRELIMINARY DATA FROM ALBUQUERQUE
      AND OTHER STATIONS.  A FINAL VERSION WITH ADDITIONAL DATA IS
      ISSUED ABOUT 10 MINUTES AFTER THE HOUR.

NMZ501-503-504-510>518-230500-
NORTHWEST PLATEAU/NORTHCENTRAL MOUNTAINS

CITY           SKY/WX    TMP DP  RH WIND       PRES   REMARKS
FARMINGTON     FAIR      64  24  21 SW7       29.86R
LOS ALAMOS     FAIR      69  32  25 S8        30.01S
SANTA FE       MOCLDY    69  40  34 SE17      29.96R
TAOS           CLOUDY    66  38  35 S16       30.04S
ANGEL FIRE     CLOUDY    61  35  37 SW10      30.13S

$$
NMZ402-403-502-505>509-230500-
WESTCENTRAL MOUNTAINS/SOUTHWEST MOUNTAINS

CITY           SKY/WX    TMP DP  RH WIND       PRES   REMARKS
GALLUP         FAIR      62  30  29 S7        29.94R
GRANTS         FAIR      58  38  49 SE5       29.98R
SILVER CITY    FAIR      71  38  30 W13       29.92F

$$
NMZ407-409-411-412-230500-
SOUTHERN DESERTS

CITY           SKY/WX    TMP DP  RH WIND       PRES   REMARKS
DEMING         FAIR      76  40  27 VRB5      29.85R
LAS CRUCES     FAIR      73  35  24 W9        29.86S
HOLLOMAN AFB   FAIR      78  40  26 SE10      29.83S
ALAMOGORDO     FAIR      75  37  25 S8        29.83F
T OR C         FAIR      76  36  23 S7        29.85S

$$
NMZ519>523-230500-
CENTRAL VALLEYS/CENTRAL HIGHLANDS

CITY           SKY/WX    TMP DP  RH WIND       PRES   REMARKS
ALBUQUERQUE    MOCLDY    70  33  25 SE9       29.89R
DOUBLE EAGLE   PTCLDY    61  32  33 SW9       29.92R
MORIARTY ARPT  FAIR      70  38  31 S12       29.98S
CLINES CORNERS MOCLDY    69  36  29 S18G26    30.04S
BELEN          FAIR      70  30  22 CALM      29.88R
SOCORRO        FAIR      69  37  30 S6        29.86R

$$
NMZ524>526-539-540-230500-
SOUTHCENTRAL MOUNTAINS

CITY           SKY/WX    TMP DP  RH WIND       PRES   REMARKS
RUIDOSO        FAIR      64  36  34 SE9       30.07S

$$
NMZ527>531-230500-
NORTHEAST HIGHLANDS/NORTHEAST PLAINS

CITY           SKY/WX    TMP DP  RH WIND       PRES   REMARKS
LAS VEGAS      FAIR      64  38  38 SW14      30.01S
RATON          LGT RAIN  62  41  46 W7        29.95S
CLAYTON        FAIR      68  59  73 S20       29.92S

$$
NMZ532>537-230500-
EASTCENTRAL PLAINS

CITY           SKY/WX    TMP DP  RH WIND       PRES   REMARKS
SANTA ROSA     MOCLDY    79  48  32 S21G28    29.89R
TUCUMCARI      FAIR      76  63  64 S25G32    29.85R
CANNON AFB     FAIR      73  66  78 SE14G21   29.94R
CLOVIS AIRPORT FAIR      72  62  71 SE15      29.95R

$$
NMZ028-029-538-230500-
SOUTHEAST PLAINS

CITY           SKY/WX    TMP DP  RH WIND       PRES   REMARKS
ROSWELL          N/A     80  62  54 S17G23    29.86R
ARTESIA        FAIR      79  64  61 SE20      29.85S
CARLSBAD       FAIR      78  68  71 S13       29.85R
HOBBS          FAIR      75  63  64 S15       29.91R


$$



USA.gov is the U.S. government's official web portal to all federal, state and local government web resources and services.